CZ-6A DEB, 57579

Orbit data source: Space-Track

CZ-6A DEB, 57579 is space debris in SSO originally from a launch on Fri, 11 Nov 2022 UTC launched from the Taiyaun Space Center, China (TSC). Debris objects in space refer to the collection of defunct objects orbiting the Earth. Examples of debris include non-operational satellites, rocket bodies, and fragments generated from explosions, collisions, or faulty payload assembly.

Loading next visibility...
Identifier
57579, 2022-151AHW
Orbit
SSO
Country
Flag of CNCN / PRC
Related business
Manufacturer
SAST
Mission
Spacecraft
Bus & Motor
Unknown
Mass
Unknown
Launch date (UTC)
2022-11-11 (4 years ago)
Launch vehicle
Unknown
Launch site
Taiyaun Space Center, China (TSC)
Object type
Payload
Rocket body
Debris
Shape & HBR
Unknown shape, 0.1 m
Radar Cross Section
Small (<0.1 m²)

Expand to show TLE details & history
Last TLE update: 2 days ago

TLE from 2 days ago
0 CZ-6A DEB
1 57579U 22151AHW 26171.31213185  .00001120  00000-0  49621-3 0  9994
2 57579  98.7523 188.3094 0022679 324.6079  35.3594 14.25020619163918
Epoch: 2026-06-20T07:29Z
TLE epoch observation values (Epoch: 2026-06-20T07:29:28.191Z)
Latitude
-0.00004°
Longitude
167.41338°
Altitude
798.061 km
Speed
7.461 km/s
True Right ascension
12h 33m 14s
True Declination
0° 00' 00"
Sunlit
Object was in daylight at epoch
Visualization orbit readout
Latitude
Unknown
Longitude
Unknown
Altitude
Unknown
Speed
Unknown
Apparent Right ascension
Unknown
Apparent Declination
Unknown
Sunlit
N/A
Visualization observer readout
Local Sidereal Time
21:37:20
Azimuth
Unknown
Elevation
Unknown
Doppler factor
Unknown
Orbital elements
Apogee altitude
821.869 km
Perigee altitude
789.285 km
Semi-major axis
7,183.714 km
Eccentricity
0.00227
Inclination
98.7523°
RAAN
188.3094°
Arg. of periapsis
324.6079°
True anomaly
35.51014°
Mean anomaly
35.3594°
Eccentric anomaly
35.43474°
Mean motion
3.56467 °/min
Orbital period
100.99 mins
BSTAR
0.00049621
Loading maneuver chart data...
Computing Atmospheric mass density...
Loading historical data...
Loading historical data...
Loading historical data...
Loading historical data...
Loading historical data...
Loading historical data...
Loading historical data...

Documentation

Showing up to 5 results
|